Location: Azul
(36.7830°S, 59.8500°W)
Time: 03:08:07
(UTC-03:00)

ISS - Pass Details

Date: 18 October 2020
Orbit: 417 x 420 km, 51.6° (Epoch: 28 October)

Event Time Altitude Azimuth Distance (km) Brightness Sun altitude
Rises 20:24:29 0° 296° (WNW) 2,374 0.7 -13.2°
Reaches altitude 10° 20:26:39 10° 288° (WNW) 1,515 -0.2 -13.6°
Maximum altitude 20:29:54 41° 216° (SW) 640 -2.4 -14.2°
Drops below altitude 10° 20:33:10 10° 144° (SE) 1,529 -1.0 -14.8°
Enters shadow 20:35:03 - 137° (SE) 2,270 -0.2 -15.2°
